Date,TemperatureHighF,TemperatureAvgF,TemperatureLowF,DewpointHighF,DewpointAvgF,DewpointLowF,HumidityHigh,HumidityAvg,HumidityLow,PressureMaxIn,PressureMinIn,WindSpeedMaxMPH,WindSpeedAvgMPH,GustSpeedMaxMPH,PrecipitationSumIn
2013-1-1,36.1,28.3,18.0,27.0,18.9,8.9,81,68,58,29.90,29.72,16,2,23,0.05
2013-1-2,30.4,18.7,10.5,18.9,10.8,3.4,85,71,59,30.08,29.88,9,1,16,0.00
2013-1-3,24.7,14.2,3.9,12.6,3.6,-4.0,83,64,36,30.12,29.98,6,1,12,0.00
2013-1-4,37.7,26.4,14.8,26.0,20.2,10.7,90,78,61,29.98,29.80,8,1,20,0.09
2013-1-5,41.7,29.8,21.8,27.6,22.5,18.3,87,75,52,30.23,29.84,9,1,20,0.11
2013-1-6,42.6,31.1,22.6,31.3,26.2,19.0,92,82,64,30.20,29.91,8,1,13,0.08
2013-1-7,40.2,29.8,20.2,30.3,23.7,17.4,92,79,56,30.37,29.94,7,1,16,0.01
2013-1-8,44.7,32.4,19.4,31.8,26.6,16.6,93,80,59,30.34,30.25,9,1,20,0.00
2013-1-9,44.1,35.0,24.5,36.4,29.9,22.8,94,82,60,30.37,29.98,7,1,15,0.00
2013-1-10,45.7,38.6,29.8,31.3,27.6,25.0,83,65,49,30.50,30.04,12,2,25,0.00
2013-1-11,37.1,32.1,25.2,34.5,28.3,22.3,96,86,72,30.50,30.18,2,0,4,0.11
2013-1-12,41.1,37.9,34.8,40.8,37.2,33.8,100,97,96,30.20,30.09,1,0,4,0.07
2013-1-13,51.4,45.1,38.9,50.8,44.3,38.3,99,97,94,30.13,29.96,6,1,10,0.09
2013-1-14,60.1,49.0,39.1,53.0,43.0,30.8,96,81,51,30.22,29.84,7,2,16,0.00
2013-1-15,40.0,36.1,32.0,31.9,28.3,26.2,85,74,62,30.29,30.18,6,0,10,0.00
2013-1-16,33.1,31.5,29.1,30.5,28.6,25.3,94,89,73,30.21,29.79,2,0,4,0.01
2013-1-17,41.1,32.8,25.9,35.1,27.7,18.6,95,82,62,30.06,29.81,8,1,18,0.31
2013-1-18,29.1,22.0,16.4,19.5,7.6,1.0,72,54,37,30.42,30.01,7,2,14,0.01
2013-1-19,46.3,36.1,18.9,34.0,25.4,9.1,79,65,50,30.35,29.86,10,3,18,0.09
2013-1-20,52.3,40.0,27.1,34.7,28.2,12.6,79,63,42,29.89,29.51,13,3,30,0.00
2013-1-21,27.2,23.3,18.7,19.5,13.6,8.3,91,67,48,30.06,29.76,7,1,17,0.00
2013-1-22,24.0,18.4,9.3,19.4,9.0,0.7,92,68,41,30.06,29.73,9,1,20,0.00
2013-1-23,16.2,9.8,4.7,3.2,-2.0,-5.9,76,59,43,30.12,30.04,9,1,21,0.00
2013-1-24,19.6,10.0,1.3,1.0,-4.2,-6.7,77,54,36,30.22,30.06,11,2,20,0.00
2013-1-25,23.3,15.2,6.3,12.2,-0.4,-6.2,84,51,33,30.30,30.03,6,1,17,0.00
2013-1-26,24.9,16.0,7.2,12.4,5.9,-2.4,89,66,40,30.23,29.98,9,2,17,0.00
2013-1-27,30.3,19.7,11.2,9.5,6.0,2.7,74,56,36,30.45,30.22,8,1,18,0.00
2013-1-28,30.5,23.2,16.2,24.2,15.0,5.7,92,72,44,30.43,29.98,4,0,6,0.00
2013-1-29,33.0,29.2,24.8,30.9,27.4,23.1,94,93,92,30.17,29.98,2,0,4,0.14
2013-1-30,58.6,47.0,31.8,56.2,45.4,30.3,97,94,90,30.12,29.42,14,4,24,0.20
2013-1-31,59.4,47.0,30.2,56.9,39.0,18.9,93,75,51,29.56,28.94,22,5,38,0.62
2013-2-1,33.8,27.2,20.6,21.5,13.5,7.5,71,56,41,30.06,29.56,11,2,18,0.00
2013-2-2,29.5,23.2,14.8,15.9,10.7,5.7,70,59,47,30.22,30.02,10,1,16,0.00
2013-2-3,27.0,23.5,18.8,21.8,19.5,15.8,89,84,71,30.03,29.70,4,0,10,0.00
2013-2-4,29.6,22.3,16.8,19.7,13.9,10.2,89,71,47,29.92,29.70,10,2,26,0.00
2013-2-5,26.5,23.3,18.7,20.6,16.6,11.5,89,75,68,30.00,29.90,4,0,9,0.00
2013-2-6,39.7,28.9,22.4,28.5,20.1,8.7,92,71,48,30.27,29.89,9,1,17,0.03
2013-2-7,30.9,24.0,16.6,13.4,9.1,6.7,77,54,38,30.50,30.27,5,0,8,0.00
2013-2-8,31.6,26.5,17.1,29.3,22.8,13.0,93,86,64,30.46,29.54,7,1,12,0.01
2013-2-9,22.7,18.3,12.6,20.7,16.0,9.5,96,91,87,30.18,29.52,0,0,0,0.00
2013-2-10,38.5,21.1,5.4,26.3,11.9,2.1,88,70,31,30.37,30.18,0,0,0,0.23
2013-2-11,43.4,32.4,17.7,41.5,29.1,10.5,94,87,72,30.33,29.58,0,0,0,0.73
2013-2-12,44.3,37.0,29.8,37.6,30.4,25.5,94,78,59,29.86,29.59,0,0,0,0.09
2013-2-13,42.1,32.5,22.7,28.8,25.3,19.7,96,76,57,29.84,29.66,0,0,0,0.00
2013-2-14,43.4,34.6,27.4,27.3,24.7,21.9,84,69,46,29.97,29.68,0,0,0,0.00
2013-2-15,49.9,36.9,23.8,36.9,30.5,20.9,92,79,59,29.97,29.88,0,0,0,0.00
2013-2-16,36.7,33.3,29.3,31.8,28.4,20.4,92,82,65,29.92,29.66,0,0,0,0.02
2013-2-17,29.2,21.1,15.6,22.1,12.5,3.2,89,71,47,29.68,29.38,0,0,0,0.00
2013-2-18,30.8,21.1,12.8,8.3,4.6,2.2,63,50,33,30.15,29.68,0,0,0,0.02
2013-2-19,47.5,33.5,17.6,39.8,25.2,5.9,93,72,53,30.16,29.56,0,0,0,0.32
2013-2-20,38.0,30.9,24.0,36.2,21.4,12.8,93,69,46,29.76,29.51,0,0,0,0.01
2013-2-21,34.2,27.1,22.3,17.9,16.3,14.2,75,64,50,30.19,29.74,0,0,0,0.00
2013-2-22,40.2,30.6,21.0,25.5,21.9,16.7,85,71,50,30.35,30.19,0,0,0,0.00
2013-2-23,37.1,32.7,28.2,31.2,28.4,23.4,92,84,77,30.30,29.86,0,0,0,0.04
2013-2-24,34.4,32.4,30.5,32.6,30.6,28.7,94,93,92,29.86,29.66,0,0,0,0.40
2013-2-25,39.0,33.2,27.0,34.5,30.4,25.1,94,90,79,30.22,29.86,0,0,0,0.27
2013-2-26,43.6,36.2,31.4,36.3,30.3,27.7,93,80,59,30.31,30.11,0,0,0,0.05
2013-2-27,40.3,37.3,33.7,38.7,35.3,30.5,94,93,85,30.12,29.54,0,0,0,1.34
2013-2-28,44.1,36.3,31.7,39.7,34.0,30.2,94,91,83,29.61,29.50,0,0,0,0.00
2013-3-1,43.0,36.8,30.6,35.0,31.0,28.1,93,80,65,29.65,29.50,0,0,0,0.00
2013-3-2,41.4,36.3,32.0,30.7,29.0,26.8,82,75,63,29.65,29.59,0,0,0,0.00
2013-3-3,42.2,34.4,30.7,32.0,28.5,25.6,89,79,65,29.61,29.53,0,0,0,0.00
2013-3-4,40.7,33.5,27.0,28.2,25.3,21.3,84,72,58,29.72,29.56,0,0,0,0.01
2013-3-5,46.2,35.8,29.2,33.0,28.1,23.5,93,74,57,30.04,29.72,0,0,0,0.00
2013-3-6,38.7,35.1,32.6,34.2,31.9,29.9,92,88,79,30.05,30.00,0,0,0,0.09
2013-3-7,34.0,31.3,29.0,30.8,28.6,26.8,92,90,84,30.01,29.95,0,0,0,0.14
2013-3-8,35.5,30.9,28.3,32.1,28.5,26.4,93,91,79,30.12,29.90,0,0,0,0.00
2013-3-9,48.5,36.3,26.1,32.7,26.8,23.3,90,70,41,30.32,30.11,0,0,0,0.90
2013-3-10,44.7,34.9,24.1,34.5,29.4,22.1,92,81,64,30.38,30.27,0,0,0,0.09
2013-3-11,52.9,41.4,34.0,42.5,36.0,30.5,90,82,63,30.30,30.12,0,0,0,0.00
2013-3-12,54.0,47.6,40.2,50.0,45.2,37.5,93,91,86,30.12,29.69,0,0,0,0.43
2013-3-13,51.7,42.0,31.3,47.4,32.6,24.2,92,71,44,29.76,29.67,0,0,0,0.00
2013-3-14,36.3,29.8,21.8,25.5,17.9,9.4,81,62,46,29.82,29.68,0,0,0,0.00
2013-3-15,40.1,29.9,19.3,29.2,17.1,10.5,90,61,32,29.85,29.62,0,0,0,0.00
2013-3-16,39.7,33.2,26.6,29.2,19.2,11.9,90,58,35,29.84,29.66,0,0,0,0.00
2013-3-17,39.4,30.5,22.6,20.2,14.9,7.7,80,54,30,30.28,29.83,0,0,0,0.00
2013-3-18,38.0,27.7,16.5,24.9,11.6,4.2,85,53,28,30.43,30.19,0,0,0,0.00
2013-3-19,34.6,30.9,27.5,32.2,28.5,24.4,92,91,85,30.19,29.58,0,0,0,0.33
2013-3-20,38.4,30.5,22.9,25.6,22.5,20.4,92,74,51,29.79,29.67,0,0,0,0.24
2013-3-21,37.6,29.4,23.6,27.9,23.2,18.9,89,78,56,29.80,29.59,0,0,0,0.10
2013-3-22,40.4,32.1,24.5,25.7,21.8,18.1,88,67,47,29.73,29.59,0,0,0,0.23
2013-3-23,42.9,34.2,26.0,25.5,22.6,20.7,83,63,44,29.78,29.63,0,0,0,0.05
2013-3-24,47.7,37.3,29.0,29.8,25.3,21.3,79,63,44,29.80,29.69,0,0,0,0.00
2013-3-25,46.2,36.5,30.4,34.3,29.4,25.3,83,76,57,29.74,29.46,0,0,0,0.00
2013-3-26,48.0,39.6,34.2,31.8,28.0,24.1,82,64,43,29.76,29.50,0,0,0,0.00
2013-3-27,54.6,41.4,28.2,32.0,27.1,22.0,81,59,35,29.84,29.72,0,0,0,0.00
2013-3-28,49.1,41.8,34.9,36.0,33.6,31.6,89,73,51,29.99,29.84,0,0,0,0.01
2013-3-29,57.9,45.5,34.0,38.2,33.2,30.0,87,64,37,30.02,29.93,0,0,0,0.00
2013-3-30,57.7,46.1,34.4,35.0,27.7,20.5,82,53,26,30.07,29.97,0,0,0,0.00
2013-3-31,61.4,45.1,30.7,40.4,30.2,23.8,87,59,29,30.09,29.68,0,0,0,0.05
2013-4-1,61.7,45.9,33.0,47.0,37.6,17.1,96,74,47,29.77,29.47,0,0,0,0.11
2013-4-2,41.9,33.4,25.4,23.9,17.6,13.4,75,53,36,29.93,29.77,0,0,0,0.00
2013-4-3,45.5,35.9,28.6,19.6,17.5,13.7,63,48,31,30.14,29.92,0,0,0,0.00
2013-4-4,54.9,40.6,27.3,29.1,21.1,16.0,71,49,24,30.28,30.03,0,0,0,0.00
2013-4-5,60.9,45.4,36.3,34.7,29.4,23.3,79,57,24,30.03,29.60,0,0,0,0.00
2013-4-6,46.5,37.8,30.4,28.2,15.6,7.4,70,43,21,30.30,29.85,0,0,0,0.00
2013-4-7,55.2,41.3,26.5,40.5,29.7,15.6,83,65,37,30.30,29.98,0,0,0,0.00
2013-4-8,65.6,52.8,41.3,44.0,41.4,38.0,90,68,40,30.05,29.93,0,0,0,0.00
2013-4-9,73.8,57.7,46.3,56.1,45.6,40.7,93,67,41,30.05,29.82,0,0,0,0.00
2013-4-10,65.9,53.6,43.6,52.1,46.4,40.6,91,78,60,29.96,29.80,0,0,0,0.16
2013-4-11,54.9,47.2,39.6,45.3,39.5,28.4,93,76,46,30.11,29.79,0,0,0,0.04
2013-4-12,39.5,37.1,35.6,35.0,33.7,32.3,92,87,77,30.12,29.75,0,0,0,0.50
2013-4-13,53.5,43.5,34.0,42.4,36.3,31.6,92,78,55,29.90,29.71,0,0,0,0.03
2013-4-14,52.9,44.1,35.5,39.8,33.8,28.1,87,69,43,30.19,29.89,0,0,0,0.00
2013-4-15,58.9,45.0,32.1,38.1,33.3,27.5,86,66,42,30.37,30.19,0,0,0,0.00
2013-4-16,60.1,50.0,34.6,49.7,42.2,31.2,90,76,59,30.37,30.05,0,0,0,0.00
2013-4-17,68.0,58.0,46.3,50.7,40.4,32.6,86,56,29,30.30,30.04,0,0,0,0.00
2013-4-18,63.9,50.8,36.8,44.5,36.4,30.8,85,60,37,30.38,30.11,0,0,0,0.00
2013-4-19,72.9,61.2,50.5,62.6,56.0,44.5,93,83,69,30.11,29.62,0,0,0,0.00
2013-4-20,63.5,53.2,42.3,59.4,42.3,26.6,89,68,44,30.19,29.57,0,0,0,0.59
2013-4-21,54.9,43.1,32.1,32.6,25.8,21.5,77,52,30,30.65,30.19,0,0,0,0.00
2013-4-22,53.9,42.4,31.3,37.5,31.7,27.3,90,68,40,30.71,30.55,0,0,0,0.00
2013-4-23,40.4,39.0,37.4,37.6,35.3,31.6,90,87,77,30.55,30.08,0,0,0,0.02
2013-4-24,74.2,54.5,39.3,53.8,44.2,36.6,91,72,32,30.08,29.77,0,0,0,0.01
2013-4-25,64.3,54.3,44.1,49.3,38.7,27.0,86,59,29,30.24,29.81,0,0,0,0.02
2013-4-26,64.8,50.3,39.0,42.2,36.9,30.0,82,62,39,30.39,30.24,0,0,0,0.00
2013-4-27,66.8,50.1,35.2,43.7,37.3,31.7,89,65,35,30.38,30.25,0,0,0,0.00
2013-4-28,70.3,53.5,36.8,42.9,36.9,28.7,88,57,32,30.31,30.18,0,0,0,0.00
2013-4-29,68.8,55.9,43.6,48.4,38.7,26.5,86,56,31,30.24,30.15,0,0,0,0.00
2013-4-30,71.3,56.9,41.9,35.8,32.3,27.4,74,43,21,30.33,30.21,0,0,0,0.00
2013-5-1,72.0,55.9,37.3,44.0,37.2,31.0,83,53,30,30.43,30.33,0,0,0,0.00
2013-5-2,79.4,57.2,41.4,49.3,42.4,37.2,87,62,30,30.44,30.29,0,0,0,0.00
2013-5-3,63.4,51.1,41.2,47.7,41.4,36.4,84,70,53,30.47,30.34,0,0,0,0.00
2013-5-4,65.0,50.2,37.7,48.5,38.3,27.6,88,66,31,30.34,30.26,0,0,0,0.00
2013-5-5,65.2,49.2,35.5,47.1,39.5,31.8,89,71,47,30.30,30.20,0,0,0,0.00
2013-5-6,75.0,55.2,36.5,53.4,44.5,32.9,89,70,40,30.26,30.10,0,0,0,0.00
2013-5-7,79.2,61.9,43.1,60.9,52.1,39.3,90,72,49,30.15,30.05,0,0,0,0.00
2013-5-8,72.5,61.7,53.3,63.7,56.4,49.1,89,83,70,30.15,30.00,0,0,0,0.06
2013-5-9,68.8,60.0,56.2,60.7,55.7,52.4,89,86,74,30.00,29.84,0,0,0,0.26
2013-5-10,80.0,66.2,52.1,63.9,55.8,48.7,90,71,46,29.92,29.85,0,0,0,0.01
2013-5-11,68.6,62.1,57.0,61.3,56.5,52.5,87,82,75,29.88,29.66,0,0,0,0.07
2013-5-12,71.5,60.0,48.2,58.7,51.0,35.1,87,73,53,29.78,29.53,0,0,0,0.07
2013-5-13,59.9,48.5,37.0,40.7,34.1,30.7,82,59,37,30.01,29.78,0,0,0,0.00
2013-5-14,59.8,48.7,37.4,38.5,34.5,31.2,81,60,38,30.02,29.95,0,0,0,0.00
2013-5-15,66.1,50.9,36.2,49.5,40.7,31.2,84,70,40,30.03,29.65,0,0,0,0.04
2013-5-16,82.1,65.0,49.2,53.3,46.7,42.4,87,57,27,29.76,29.61,0,0,0,0.00
2013-5-17,70.8,59.2,47.7,49.6,44.8,41.4,80,60,40,30.18,29.76,0,0,0,0.00
2013-5-18,71.8,58.4,44.8,51.0,45.3,40.0,86,64,38,30.32,30.18,0,0,0,0.00
2013-5-19,72.2,57.3,46.1,57.9,49.3,41.2,86,76,53,30.31,30.18,0,0,0,0.09
2013-5-20,80.8,67.3,54.4,69.1,60.2,50.3,88,79,63,30.18,29.88,0,0,0,0.02
2013-5-21,89.0,66.1,50.7,73.2,58.8,46.3,87,78,54,29.95,29.78,0,0,0,0.10
2013-5-22,74.8,58.5,49.3,66.8,53.3,45.3,90,83,75,30.01,29.83,0,0,0,0.11
2013-5-23,74.2,64.6,54.7,66.5,58.8,49.8,87,82,76,29.89,29.76,0,0,0,0.22
2013-5-24,69.0,61.6,48.0,61.9,56.2,43.1,86,83,77,29.78,29.61,0,0,0,0.35
2013-5-25,50.3,46.1,39.2,46.3,41.8,35.1,90,85,83,29.78,29.68,0,0,0,0.43
2013-5-26,59.4,47.3,37.9,46.9,39.8,33.8,90,76,56,30.09,29.70,0,0,0,0.03
2013-5-27,71.2,55.7,37.8,48.7,41.7,32.8,84,62,34,30.14,30.05,0,0,0,0.00
2013-5-28,77.0,59.9,42.8,55.5,46.8,37.1,82,64,35,30.20,30.12,0,0,0,0.00
2013-5-29,73.3,63.0,56.4,64.5,56.6,50.5,84,80,74,30.15,29.95,0,0,0,1.04
2013-5-30,85.7,72.8,60.5,73.8,64.2,55.0,83,75,63,30.06,29.97,0,0,0,0.17
2013-5-31,93.3,76.1,64.5,76.0,64.9,57.8,80,70,48,30.06,29.94,0,0,0,0.00
2013-6-3,68.5,64.3,60.6,57.9,54.3,49.6,71,70,67,29.80,29.77,0,0,0,0.51
2013-6-4,70.3,59.0,48.7,54.8,47.4,40.3,73,66,53,30.06,29.79,0,0,0,0.00
2013-6-5,74.0,61.5,49.1,58.2,49.1,40.8,74,65,44,30.16,30.06,0,0,0,0.00
2013-6-6,73.7,63.0,51.0,59.1,50.9,42.6,74,65,50,30.16,30.06,0,0,0,0.01
2013-6-7,57.3,54.6,52.6,49.5,46.8,45.6,77,75,71,30.06,29.80,0,0,0,2.73
2013-6-8,72.9,59.4,52.7,62.5,52.0,46.0,79,77,70,29.79,29.59,0,0,0,0.97
2013-6-9,66.5,62.6,59.3,56.1,52.7,49.5,71,70,69,30.13,30.09,0,0,0,0.00
2013-6-10,68.0,60.1,57.2,57.0,50.6,48.2,73,71,67,30.16,29.96,0,0,0,0.80
2013-6-11,63.1,58.5,55.9,52.6,49.4,47.5,74,72,67,29.96,29.53,0,0,0,1.48
2013-6-12,69.3,61.2,56.0,58.1,51.4,46.7,72,70,67,29.78,29.53,0,0,0,0.00
2013-6-13,61.4,54.9,50.6,49.7,43.9,39.9,69,66,64,29.79,29.62,0,0,0,1.02
2013-6-14,68.5,57.8,50.7,57.9,47.4,40.5,70,68,64,29.74,29.59,0,0,0,1.15
2013-6-15,77.8,64.4,52.9,59.5,49.9,41.1,70,60,42,29.91,29.75,0,0,0,0.00
2013-6-16,73.1,63.8,50.8,61.1,52.1,39.3,70,66,59,29.92,29.69,0,0,0,0.00
2013-6-17,85.8,68.8,57.3,68.6,54.3,44.0,68,60,49,29.87,29.74,0,0,0,0.58
2013-6-18,80.3,63.3,58.2,68.8,50.1,44.6,69,62,59,29.90,29.82,0,0,0,1.44
2013-6-19,77.8,63.5,54.4,63.0,50.5,41.1,71,63,50,30.11,29.86,0,0,0,0.09
2013-6-20,80.2,65.0,49.9,62.3,49.8,36.4,71,58,42,30.23,30.11,0,0,0,0.00
2013-6-21,83.2,69.3,55.0,69.6,56.7,40.7,70,64,58,30.23,30.15,0,0,0,0.00
2013-6-22,84.7,70.9,60.0,69.1,58.3,47.8,69,65,52,30.19,30.08,0,0,0,0.00
2013-6-23,89.0,74.6,62.0,75.5,61.9,48.8,69,65,59,30.13,29.97,0,0,0,0.00
2013-6-24,92.8,78.7,68.1,78.9,63.2,49.8,68,59,51,30.00,29.84,0,0,0,0.05
2013-6-25,90.8,76.6,65.9,77.2,60.0,46.3,67,57,47,29.90,29.70,0,0,0,0.00
2013-6-26,87.5,75.0,67.5,73.8,57.3,45.4,66,54,44,29.81,29.69,0,0,0,0.00
2013-6-27,69.8,66.3,63.8,47.3,42.3,37.7,47,42,38,29.81,29.70,0,0,0,0.15
2013-6-28,81.8,70.9,62.7,69.8,48.3,36.6,67,46,32,29.71,29.45,0,0,0,0.31
2013-6-29,82.5,73.9,69.5,69.5,48.8,34.0,66,43,26,29.69,29.47,0,0,0,0.00
2013-6-30,84.3,75.1,69.7,70.1,46.7,30.7,63,38,23,29.90,29.68,0,0,0,0.00
2013-7-1,81.0,74.3,70.8,60.1,31.9,18.0,50,23,11,30.04,29.90,0,0,0,0.04
2013-7-2,81.9,75.6,69.6,61.3,34.5,8.5,50,26,8,30.14,30.04,0,0,0,0.00
2013-7-3,87.7,75.4,65.2,73.5,35.7,-9.4,63,29,4,30.17,30.10,0,0,0,0.00
2013-7-4,92.3,80.7,71.3,77.9,33.7,-13.7,64,31,3,30.17,30.06,0,0,0,0.00
2013-7-5,93.8,82.0,72.2,78.6,38.3,-13.1,63,32,3,30.13,30.00,0,0,0,0.00
2013-7-6,92.8,80.7,72.1,77.7,34.1,-13.2,62,31,3,30.04,29.94,0,0,0,0.00
2013-7-7,93.5,78.2,70.0,78.5,19.6,-14.6,62,21,3,29.99,29.87,0,0,0,0.03
2013-7-8,92.1,78.1,68.6,77.1,22.1,-15.6,63,24,3,30.01,29.87,0,0,0,0.00
2013-7-9,75.1,70.1,66.8,12.8,-11.7,-16.7,10,4,3,30.06,29.99,0,0,0,0.01
2013-7-10,85.6,74.3,67.5,65.8,3.6,-16.3,52,12,3,30.03,29.76,0,0,0,0.09
2013-7-11,80.2,74.5,70.4,45.6,-1.0,-14.3,30,7,3,29.89,29.75,0,0,0,0.19
2013-7-12,80.3,69.9,63.9,66.1,24.7,-17.8,62,30,3,30.15,29.88,0,0,0,0.00
2013-7-13,74.7,69.3,64.1,4.0,-14.7,-18.4,9,3,3,30.27,30.15,0,0,0,0.11
2013-7-14,91.6,78.4,70.8,76.7,18.4,-14.1,62,20,3,30.26,30.15,0,0,0,0.00
2013-7-15,92.1,79.6,71.9,75.7,12.8,-13.3,60,16,3,30.17,30.06,0,0,0,0.00
2013-7-16,95.5,80.4,69.1,79.7,26.6,-15.2,62,26,3,30.13,30.05,0,0,0,0.00
2013-7-17,97.3,81.8,70.9,80.4,26.7,-14.0,61,26,3,30.14,29.97,0,0,0,0.00
2013-7-18,99.2,83.2,72.9,81.4,24.0,-12.6,60,23,3,29.98,29.89,0,0,0,0.00
2013-7-19,97.6,84.3,74.3,81.0,23.9,-11.7,60,22,3,29.91,29.69,0,0,0,0.00
2013-7-20,93.8,82.0,71.5,77.3,17.3,-13.6,60,17,3,29.78,29.61,0,0,0,0.00
2013-7-21,89.4,76.2,68.0,73.1,21.9,-15.9,61,25,3,29.94,29.77,0,0,0,0.00
2013-7-22,89.0,74.4,65.6,73.2,9.6,-17.6,60,16,3,29.97,29.84,0,0,0,0.00
2013-7-23,85.9,73.6,69.5,56.3,-9.6,-14.9,39,4,3,29.83,29.49,0,0,0,0.79
2013-7-24,87.5,75.2,66.4,70.2,18.2,-16.5,61,23,3,29.90,29.55,0,0,0,0.00
2013-7-25,66.3,59.5,57.6,44.3,0.2,-22.5,54,17,3,30.06,29.90,0,0,0,0.69
2013-7-26,71.5,63.8,58.9,-13.6,-18.8,-22.1,3,3,3,30.02,29.92,0,0,0,0.48
2013-7-27,86.4,70.5,58.8,70.9,14.6,-22.2,61,23,3,30.04,29.95,0,0,0,0.00
2013-7-28,89.1,73.3,63.9,72.9,4.0,-18.7,59,13,3,29.98,29.91,0,0,0,0.00
2013-7-29,87.0,73.5,65.0,65.4,-0.1,-18.0,52,10,3,30.01,29.92,0,0,0,0.57
2013-7-30,87.4,70.4,59.3,70.4,16.3,-21.8,60,24,3,30.07,29.99,0,0,0,0.00
2013-7-31,86.5,70.2,59.6,69.8,11.4,-21.6,60,21,3,30.10,30.00,0,0,0,0.00
2013-8-1,81.3,68.5,60.0,65.3,3.2,-21.4,59,16,3,30.02,29.84,0,0,0,0.00
2013-8-2,86.8,71.8,64.7,70.4,10.6,-18.2,60,20,3,29.85,29.76,0,0,0,0.16
2013-8-3,79.8,68.6,62.4,63.4,-0.2,-19.7,59,13,3,29.84,29.75,0,0,0,0.00
2013-8-4,85.0,66.6,56.5,68.2,3.6,-23.7,59,18,3,29.87,29.74,0,0,0,0.04
2013-8-5,82.0,64.0,53.2,60.3,18.4,-26.0,62,29,3,30.02,29.86,0,0,0,0.00
2013-8-6,84.2,65.1,49.8,64.5,18.2,-28.3,60,28,3,30.12,30.01,0,0,0,0.00
2013-8-7,84.6,67.8,56.6,65.5,17.0,-23.7,60,25,3,30.15,30.07,0,0,0,0.00
2013-8-8,78.3,70.1,63.7,-9.0,-14.5,-18.9,3,3,3,30.10,29.98,0,0,0,0.12
2013-8-9,75.3,72.5,70.9,-11.1,-12.9,-14.0,3,3,3,30.00,29.72,0,0,0,1.44
2013-8-10,85.8,71.8,59.4,70.0,20.1,-18.0,61,26,3,29.98,29.76,0,0,0,0.00
2013-8-11,83.6,66.3,53.7,67.1,11.1,-25.7,62,23,3,30.05,29.97,0,0,0,0.00
2013-8-12,87.2,69.9,59.2,70.2,12.1,-21.9,60,22,3,30.00,29.88,0,0,0,0.00
2013-8-13,74.4,66.9,62.5,35.1,-15.5,-19.7,24,3,3,29.90,29.65,0,0,0,0.00
2013-8-14,78.1,65.1,55.8,62.0,19.9,-24.2,61,29,3,29.94,29.64,0,0,0,0.00
2013-8-15,82.8,64.0,51.5,64.7,11.9,-27.2,61,25,3,30.09,29.94,0,0,0,0.00
2013-8-16,85.8,65.7,52.8,66.0,10.2,-26.3,60,22,3,30.17,30.08,0,0,0,0.00
2013-8-17,84.2,67.3,55.9,67.7,6.6,-24.2,59,19,3,30.25,30.17,0,0,0,0.00
2013-8-18,81.8,66.9,59.4,65.8,-1.5,-21.8,59,12,3,30.24,30.06,0,0,0,0.00
2013-8-19,84.5,68.4,57.2,68.2,7.8,-23.3,60,18,3,30.06,29.93,0,0,0,0.00
2013-8-20,90.5,72.8,61.8,71.9,12.9,-20.1,59,20,3,30.06,29.95,0,0,0,0.00
2013-8-21,92.7,73.9,62.4,73.6,11.9,-19.7,59,19,3,30.11,30.00,0,0,0,0.00
2013-8-22,86.5,73.0,63.4,68.1,-3.7,-19.1,55,8,3,30.01,29.80,0,0,0,0.00
2013-8-23,84.1,71.1,59.6,66.6,16.2,-19.7,59,24,3,30.08,29.79,0,0,0,0.00
2013-8-24,83.6,64.7,52.5,60.4,17.2,-26.5,60,25,3,30.31,30.09,0,0,0,0.00
2013-8-25,88.5,67.6,53.6,66.8,18.3,-25.7,61,25,3,30.33,30.16,0,0,0,0.00
2013-8-26,80.0,68.8,61.6,63.2,1.3,-20.3,57,12,3,30.17,29.85,0,0,0,0.00
2013-8-27,85.5,72.3,66.1,59.2,-8.1,-17.2,42,5,3,29.86,29.79,0,0,0,0.20
2013-8-28,90.2,73.2,62.5,73.8,10.2,-19.7,59,19,3,29.92,29.81,0,0,0,0.00
2013-8-29,67.2,64.3,59.2,-16.5,-18.5,-21.9,3,3,3,30.04,29.91,0,0,0,0.00
2013-8-30,85.4,68.8,59.9,69.4,-3.1,-21.4,59,11,3,30.01,29.80,0,0,0,0.00
2013-8-31,77.8,73.1,67.3,-9.3,-12.5,-16.4,3,3,3,29.81,29.76,0,0,0,0.00
2013-9-1,76.3,72.2,69.0,-10.3,-13.1,-15.3,3,3,3,29.84,29.75,0,0,0,0.37
2013-9-2,80.3,74.1,70.6,-7.8,-11.8,-14.2,3,3,3,29.83,29.67,0,0,0,0.13
2013-9-3,77.5,70.9,61.1,-3.7,-13.9,-20.7,4,3,3,29.78,29.66,0,0,0,0.03
2013-9-4,84.5,66.9,56.9,66.6,10.8,-23.5,61,23,3,29.90,29.77,0,0,0,0.00
2013-9-5,70.1,61.1,50.6,49.9,-0.2,-27.9,56,16,3,30.11,29.83,0,0,0,0.06
2013-9-6,74.5,55.8,43.4,52.7,4.8,-32.7,62,23,3,30.22,30.07,0,0,0,0.00
2013-9-7,83.9,61.8,46.8,60.9,9.0,-30.4,60,23,3,30.08,29.83,0,0,0,0.00
2013-9-8,80.5,63.7,49.2,64.5,16.7,-22.7,62,30,3,30.06,29.72,0,0,0,0.00
2013-9-9,71.5,56.1,42.3,53.3,12.9,-33.5,62,29,3,30.21,30.06,0,0,0,0.00
2013-9-10,73.9,65.3,52.9,-11.9,-17.8,-26.2,3,3,3,30.14,30.00,0,0,0,0.03
2013-9-11,96.7,79.3,69.0,78.4,12.0,-15.3,59,16,3,30.05,29.90,0,0,0,0.00
2013-9-12,87.7,75.9,68.8,65.6,1.0,-15.5,48,9,3,29.94,29.65,0,0,0,0.54
2013-9-13,81.1,68.8,58.4,62.5,-7.7,-22.5,55,7,3,29.72,29.53,0,0,0,0.18
2013-9-14,67.1,58.7,52.0,47.6,-6.9,-26.8,50,11,3,30.03,29.72,0,0,0,0.01
2013-9-15,73.6,57.9,47.8,57.7,2.1,-29.7,61,22,3,30.14,30.03,0,0,0,0.00
2013-9-16,67.8,56.2,47.1,45.0,-7.2,-26.5,55,13,3,30.22,29.99,0,0,0,0.02
2013-9-17,65.2,49.8,38.5,47.5,7.9,-36.1,62,29,3,30.39,30.21,0,0,0,0.00
2013-9-18,75.9,55.9,42.9,54.7,3.9,-33.1,60,23,3,30.31,30.12,0,0,0,0.00
2013-9-19,82.5,61.3,48.3,61.5,4.4,-29.4,59,20,3,30.12,30.00,0,0,0,0.00
2013-9-20,84.0,63.5,50.2,64.8,7.0,-28.1,59,21,3,30.06,29.96,0,0,0,0.00
2013-9-21,73.7,64.1,53.1,53.3,-6.4,-26.1,51,9,3,30.00,29.69,0,0,0,0.00
2013-9-22,73.3,63.5,49.3,58.1,5.5,-28.7,60,20,3,29.80,29.58,0,0,0,0.54
2013-9-23,67.4,51.9,42.6,50.5,4.4,-33.3,61,26,3,29.98,29.80,0,0,0,0.00
2013-9-24,70.8,52.4,38.9,51.6,6.8,-35.8,60,27,3,29.98,29.79,0,0,0,0.00
2013-9-25,72.6,55.8,44.0,56.6,0.3,-32.3,59,20,3,29.95,29.84,0,0,0,0.00
2013-9-26,67.4,56.3,51.5,52.6,-1.7,-27.2,60,19,3,30.09,29.95,0,0,0,0.00
2013-9-27,64.9,56.8,50.3,39.8,-11.0,-28.0,40,9,3,30.23,30.09,0,0,0,0.00
2013-9-28,76.8,57.7,46.9,61.0,-1.4,-30.4,60,19,3,30.30,30.22,0,0,0,0.00
2013-9-29,68.2,53.5,44.2,53.1,-3.5,-32.2,61,20,3,30.24,30.09,0,0,0,0.00
2013-9-30,68.7,55.0,47.6,54.1,-5.7,-29.8,61,18,3,30.10,29.93,0,0,0,0.00
2013-10-1,76.9,60.7,48.5,59.4,4.7,-29.2,60,22,3,29.93,29.82,0,0,0,0.00
2013-10-2,78.8,64.3,54.1,62.8,6.5,-25.4,59,21,3,29.93,29.81,0,0,0,0.00
2013-10-3,77.8,61.4,51.9,58.4,11.5,-26.9,60,26,3,30.06,29.93,0,0,0,0.00
2013-10-4,61.4,56.5,52.0,-20.4,-23.7,-26.8,3,3,3,30.06,30.00,0,0,0,0.67
2013-10-5,66.9,61.2,57.1,-16.7,-20.5,-23.3,3,3,3,30.10,30.02,0,0,0,0.03
2013-10-6,60.0,57.3,55.4,-21.4,-23.2,-24.5,3,3,3,30.19,30.08,0,0,0,0.42
2013-10-7,74.3,64.4,55.8,-11.7,-18.4,-24.2,3,3,3,30.09,29.79,0,0,0,0.17
2013-10-8,64.8,55.2,45.2,49.8,5.9,-31.5,61,25,3,30.34,29.88,0,0,0,0.00
2013-10-9,62.7,50.4,44.0,47.7,-5.4,-32.3,59,20,3,30.44,30.33,0,0,0,0.00
2013-10-10,63.1,51.3,44.3,31.0,-22.6,-32.1,30,5,3,30.33,30.15,0,0,0,0.00
2013-10-11,70.5,57.3,50.6,51.0,-4.8,-27.8,50,13,3,30.14,30.05,0,0,0,0.00
2013-10-12,60.0,54.6,50.1,-21.4,-25.0,-28.1,3,3,3,30.35,30.11,0,0,0,0.00
2013-10-13,61.4,51.4,46.7,40.9,-22.1,-30.5,47,6,3,30.41,30.33,0,0,0,0.00
2013-10-14,65.0,49.5,35.7,48.7,-2.6,-38.1,62,23,3,30.37,30.22,0,0,0,0.00
2013-10-15,66.0,55.7,46.7,51.6,-3.1,-30.5,60,18,3,30.24,30.14,0,0,0,0.00
2013-10-16,60.0,54.5,48.0,7.1,-23.3,-29.6,12,3,3,30.14,29.89,0,0,0,0.00
2013-10-17,71.5,60.0,51.2,48.6,-10.3,-27.4,47,9,3,29.89,29.69,0,0,0,0.00
2013-10-18,68.3,59.2,44.2,52.9,8.8,-32.2,61,27,3,29.88,29.58,0,0,0,0.00
2013-10-19,65.7,52.4,40.2,49.0,8.8,-34.9,61,29,3,29.95,29.72,0,0,0,0.00
2013-10-20,62.7,51.9,40.5,43.5,11.1,-31.1,62,31,3,29.99,29.66,0,0,0,0.00
2013-10-21,67.5,51.0,37.8,46.6,10.1,-36.6,61,30,3,30.10,29.97,0,0,0,0.00
2013-10-22,66.9,52.5,41.7,52.2,-1.3,-33.9,60,21,3,29.97,29.68,0,0,0,0.00
2013-10-23,50.2,43.7,35.4,37.2,9.5,-38.3,63,35,3,29.77,29.56,0,0,0,0.00
2013-10-24,54.7,43.1,34.8,35.6,15.0,-38.7,63,41,3,29.87,29.62,0,0,0,0.00
2013-10-25,49.1,38.9,30.6,35.2,11.3,-41.6,63,41,3,30.14,29.86,0,0,0,0.00
2013-10-26,54.9,41.6,29.7,35.3,5.1,-42.2,63,33,3,30.14,29.84,0,0,0,0.00
2013-10-27,56.6,45.7,35.4,39.8,14.3,-35.9,63,39,3,30.04,29.78,0,0,0,0.00
2013-10-28,61.3,43.3,30.1,39.8,7.5,-42.0,64,35,3,30.32,30.04,0,0,0,0.00
2013-10-29,51.1,37.8,30.3,31.1,21.1,-4.7,64,52,21,30.42,30.32,0,0,0,0.00
2013-10-30,54.4,41.1,30.6,41.2,-9.5,-40.7,61,20,3,30.34,30.17,0,0,0,0.00
2013-10-31,61.6,48.9,34.2,-20.3,-29.0,-39.1,3,3,3,30.21,29.77,0,0,0,0.00
2013-11-1,67.3,62.4,56.0,38.6,-13.9,-24.2,37,6,3,29.77,29.44,0,0,0,0.08
2013-11-2,66.7,54.7,44.4,49.3,5.7,-32.0,62,26,3,29.69,29.55,0,0,0,0.00
2013-11-3,49.8,41.3,31.3,32.8,11.8,-31.6,63,39,3,30.39,29.69,0,0,0,0.00
2013-11-4,43.1,32.7,26.0,21.7,18.0,3.7,66,55,38,30.68,30.39,0,0,0,0.00
2013-11-5,50.1,36.9,24.3,33.5,5.8,-45.9,64,37,3,30.69,30.49,0,0,0,0.00
2013-11-6,60.5,48.2,36.3,46.0,-3.0,-37.6,62,23,3,30.50,30.02,0,0,0,0.00
2013-11-7,64.4,53.1,38.1,26.6,-19.0,-33.2,34,6,3,30.03,29.64,0,0,0,0.24
2013-11-8,48.5,37.9,28.5,36.2,16.6,-42.8,65,48,3,30.08,29.79,0,0,0,0.00
2013-11-9,45.1,35.7,27.0,28.9,14.7,-44.0,64,45,3,30.19,30.00,0,0,0,0.00
2013-11-10,55.7,44.6,39.2,42.0,12.9,-34.8,63,41,3,30.00,29.72,0,0,0,0.00
2013-11-11,51.6,44.4,36.0,32.6,29.5,23.4,64,56,44,30.08,29.84,0,0,0,0.00
2013-11-12,45.3,36.3,25.4,32.6,-1.4,-41.7,67,37,3,30.17,29.86,0,0,0,0.00
2013-11-13,36.7,27.5,22.0,20.9,14.9,9.1,67,59,46,30.28,30.15,0,0,0,0.00
2013-11-14,50.6,37.4,25.6,28.8,22.7,15.5,66,56,39,30.15,30.03,0,0,0,0.00
2013-11-15,60.3,44.4,31.8,34.0,24.5,13.1,64,48,25,30.17,30.09,0,0,0,0.00
2013-11-16,60.3,45.4,37.4,40.6,21.8,-36.6,63,44,3,30.29,30.16,0,0,0,0.00
2013-11-17,57.4,47.4,34.5,24.2,-24.4,-38.9,29,6,3,30.28,29.81,0,0,0,0.00
2013-11-18,65.2,57.3,45.6,50.2,15.7,-23.1,63,34,3,29.80,29.51,0,0,0,0.31
2013-11-19,45.9,39.0,30.2,34.0,25.4,19.6,65,58,46,30.25,29.62,0,0,0,0.00
2013-11-20,41.5,31.3,23.7,20.3,17.0,12.2,67,57,34,30.60,30.25,0,0,0,0.00
2013-11-21,47.2,33.9,20.9,28.0,17.5,-14.7,66,51,18,30.61,30.36,0,0,0,0.00
2013-11-22,48.9,44.0,39.3,19.8,-22.9,-34.9,45,9,3,30.36,29.80,0,0,0,0.00
2013-11-23,46.7,39.4,27.9,31.6,15.3,-32.6,69,48,3,29.88,29.76,0,0,0,0.00
2013-11-24,27.9,23.1,19.1,17.6,7.6,-0.8,69,52,31,30.18,29.78,0,0,0,0.00
2013-11-25,32.7,24.2,15.0,19.7,7.7,-0.3,65,50,27,30.35,30.18,0,0,0,0.00
2013-11-26,39.9,35.0,30.1,26.4,10.7,-39.2,65,48,3,30.30,30.00,0,0,0,0.03
2013-11-27,61.8,50.2,34.6,-20.1,-28.1,-38.8,3,3,3,30.00,29.19,0,0,0,0.10
2013-11-28,35.1,29.0,21.0,21.5,12.2,-39.1,68,54,3,30.41,29.45,0,0,0,0.00
2013-11-29,34.9,26.4,19.7,19.3,13.8,5.1,69,59,47,30.72,30.41,0,0,0,0.00
2013-11-30,32.6,24.1,14.3,20.3,12.2,3.3,69,60,38,30.76,30.40,0,0,0,0.00
2013-12-1,36.6,33.1,28.2,12.2,-27.8,-42.6,50,11,3,30.40,29.99,0,0,0,0.02
2013-12-2,39.8,36.9,34.0,-35.2,-37.2,-39.2,3,3,3,29.99,29.89,0,0,0,0.01
2013-12-3,48.9,38.3,29.9,37.6,-15.5,-42.1,65,20,3,29.93,29.81,0,0,0,0.00
2013-12-4,45.3,34.0,27.4,33.5,-11.0,-43.8,66,27,3,30.17,29.93,0,0,0,0.00
2013-12-5,55.3,41.6,29.1,-24.6,-34.0,-42.7,3,3,3,30.18,29.88,0,0,0,0.00
2013-12-6,56.4,48.4,33.9,26.8,-15.2,-39.3,47,11,3,30.09,29.83,0,0,0,0.04
2013-12-7,38.4,32.5,24.5,27.7,-11.5,-45.9,68,27,3,30.43,30.04,0,0,0,0.00
2013-12-8,30.4,26.8,20.1,20.7,15.5,-7.6,70,62,27,30.57,30.42,0,0,0,0.00
2013-12-9,35.7,31.1,24.7,18.9,-31.2,-45.7,69,11,3,30.47,29.86,0,0,0,0.00
2013-12-10,32.8,29.2,19.8,-40.1,-42.6,-49.2,3,3,3,29.98,29.76,0,0,0,0.00
2013-12-11,29.5,21.6,15.7,17.3,-20.4,-52.0,62,26,3,30.20,29.99,0,0,0,0.00
2013-12-12,25.6,18.1,9.0,13.8,3.0,-16.8,74,54,19,30.26,30.05,0,0,0,0.00
2013-12-13,29.0,20.4,9.9,18.7,11.4,0.1,73,68,60,30.35,29.98,0,0,0,0.00
2013-12-14,21.2,14.2,10.6,11.8,-1.1,-49.9,77,57,3,30.57,30.11,0,0,0,0.00
2013-12-15,33.5,25.5,17.5,-10.0,-41.4,-50.8,21,4,3,30.10,29.41,0,0,0,0.65
2013-12-16,29.8,20.6,11.6,18.9,-9.2,-51.5,73,44,3,30.18,29.73,0,0,0,0.00
2013-12-17,17.2,10.6,2.3,5.4,-10.8,-51.8,71,45,3,30.25,29.93,0,0,0,0.00
2013-12-18,33.7,23.1,14.9,24.5,-16.3,-51.8,70,29,3,30.07,29.85,0,0,0,0.01
2013-12-19,42.6,29.7,17.2,30.0,-1.0,-50.7,70,38,3,30.10,29.94,0,0,0,0.00
2013-12-20,53.1,39.5,29.1,38.5,11.7,-42.1,67,42,3,30.09,29.89,0,0,0,0.00
2013-12-21,56.4,47.3,38.5,41.7,3.8,-36.2,59,28,3,29.95,29.84,0,0,0,0.00
2013-12-22,64.0,49.9,36.7,48.8,-24.7,-37.4,65,6,3,29.99,29.73,0,0,0,0.00
2013-12-23,39.4,35.1,32.8,-35.5,-38.5,-40.1,3,3,3,30.06,29.93,0,0,0,0.10
2013-12-24,38.5,31.9,25.4,24.9,4.3,-40.6,72,48,3,30.18,30.02,0,0,0,0.00
2013-12-25,25.4,19.1,14.8,15.3,8.0,5.0,74,62,48,30.52,30.17,0,0,0,0.00
2013-12-26,21.3,20.5,14.9,13.1,12.0,8.1,74,69,68,30.48,30.07,0,0,0,0.00
2013-12-27,34.2,26.4,17.3,24.6,12.2,-50.9,71,62,3,30.27,30.18,0,0,0,0.01
2013-12-28,46.1,34.1,26.8,32.1,22.6,-12.8,71,63,16,30.20,29.98,0,0,0,0.01
2013-12-29,34.0,32.9,31.5,23.8,-10.8,-31.4,66,28,5,30.01,29.38,0,0,0,0.01
2013-12-30,37.2,31.5,26.5,27.5,-5.9,-40.9,70,34,3,30.13,29.50,0,0,0,0.00
2013-12-31,26.5,23.3,13.6,15.6,13.1,3.3,71,65,53,30.17,29.99,0,0,0,0.00
2014-1-1,28.3,22.5,14.4,14.8,12.4,6.4,72,65,51,30.35,30.17,0,0,0,0.00
2014-1-2,20.6,14.2,1.8,11.4,1.6,-8.8,67,58,36,30.32,29.80,0,0,0,0.00